Satellite: NOAA-12
Catalog number: 21263
Epoch time:      09056.93147098
Element set:    0037
Inclination:      098.7734 deg
RA of node:       064.9335 deg
Eccentricity:    0.0013204
Arg of perigee:   106.6918 deg
Mean anomaly:     253.5713 deg
Mean motion:   14.25567671 rev/day
Decay rate:        7.0e-08 rev/day^2
Epoch rev:           92454
Checksum:              310

Satellite: MET-3/5
Catalog number: 21655
Epoch time:      09056.93047565
Element set:    0646
Inclination:      082.5522 deg
RA of node:       285.1082 deg
Eccentricity:    0.0014595
Arg of perigee:   096.6829 deg
Mean anomaly:     263.5954 deg
Mean motion:   13.17018347 rev/day
Decay rate:        5.1e-07 rev/day^2
Epoch rev:           84298
Checksum:              333

Satellite: MET-2/21
Catalog number: 22782
Epoch time:      09057.68321860
Element set:     389
Inclination:      082.5439 deg
RA of node:       269.6725 deg
Eccentricity:    0.0021202
Arg of perigee:   298.6670 deg
Mean anomaly:     061.2377 deg
Mean motion:   13.83633749 rev/day
Decay rate:        3.9e-07 rev/day^2
Epoch rev:           78232
Checksum:              332

Satellite: OKEAN-4
Catalog number: 23317
Epoch time:      09057.82652043
Element set:     839
Inclination:      082.5353 deg
RA of node:       077.4772 deg
Eccentricity:    0.0022795
Arg of perigee:   012.8556 deg
Mean anomaly:     347.3253 deg
Mean motion:   14.82677202 rev/day
Decay rate:       1.99e-06 rev/day^2
Epoch rev:           77601
Checksum:              319

Satellite: NOAA-14
Catalog number: 23455
Epoch time:      09056.91601188
Element set:    0526
Inclination:      098.9185 deg
RA of node:       134.9539 deg
Eccentricity:    0.0010111
Arg of perigee:   142.9311 deg
Mean anomaly:     217.2568 deg
Mean motion:   14.13757570 rev/day
Decay rate:        2.1e-07 rev/day^2
Epoch rev:           73020
Checksum:              287

Satellite: NOAA-15
Catalog number: 25338
Epoch time:      09056.88304356
Element set:    0830
Inclination:      098.5774 deg
RA of node:       048.5714 deg
Eccentricity:    0.0011158
Arg of perigee:   027.3064 deg
Mean anomaly:     332.8686 deg
Mean motion:   14.24746568 rev/day
Decay rate:       -6.6e-07 rev/day^2
Epoch rev:           56092
Checksum:              331

Satellite: RESURS
Catalog number: 25394
Epoch time:      09056.94506355
Element set:    0152
Inclination:      098.3531 deg
RA of node:       094.8830 deg
Eccentricity:    0.0001448
Arg of perigee:   140.8118 deg
Mean anomaly:     219.3164 deg
Mean motion:   14.24180069 rev/day
Decay rate:       -3.3e-07 rev/day^2
Epoch rev:           55256
Checksum:              290

Satellite: FENGYUN1
Catalog number: 25730
Epoch time:      09057.84751652
Element set:     695
Inclination:      098.7459 deg
RA of node:       031.3513 deg
Eccentricity:    0.0022147
Arg of perigee:   167.8374 deg
Mean anomaly:     192.3336 deg
Mean motion:   14.07927049 rev/day
Decay rate:       1.49e-06 rev/day^2
Epoch rev:           50479
Checksum:              325

Satellite: OKEAN-0
Catalog number: 25860
Epoch time:      09056.80945409
Element set:     609
Inclination:      097.7754 deg
RA of node:       042.4790 deg
Eccentricity:    0.0001216
Arg of perigee:   107.3717 deg
Mean anomaly:     252.7622 deg
Mean motion:   14.73560090 rev/day
Decay rate:        2.3e-07 rev/day^2
Epoch rev:           51674
Checksum:              296

Satellite: NOAA-16
Catalog number: 26536
Epoch time:      09056.86932251
Element set:    0305
Inclination:      099.1762 deg
RA of node:       057.8498 deg
Eccentricity:    0.0009870
Arg of perigee:   230.7203 deg
Mean anomaly:     129.3079 deg
Mean motion:   14.12510246 rev/day
Decay rate:      -1.87e-06 rev/day^2
Epoch rev:           43458
Checksum:              317

Satellite: NOAA-17
Catalog number: 27453
Epoch time:      09056.91653095
Element set:    0314
Inclination:      098.4999 deg
RA of node:       119.7521 deg
Eccentricity:    0.0012774
Arg of perigee:   089.3416 deg
Mean anomaly:     270.9221 deg
Mean motion:   14.24043997 rev/day
Decay rate:       1.98e-06 rev/day^2
Epoch rev:           34691
Checksum:              338

Satellite: NOAA-18
Catalog number: 28654
Epoch time:      09056.87821335
Element set:    0800
Inclination:      098.8978 deg
RA of node:       001.0406 deg
Eccentricity:    0.0013881
Arg of perigee:   320.7895 deg
Mean anomaly:     039.2252 deg
Mean motion:   14.11237447 rev/day
Decay rate:       1.46e-06 rev/day^2
Epoch rev:           19425
Checksum:              313

Satellite: NOAA-19
Catalog number: 33591
Epoch time:      09057.18890263
Element set:      20
Inclination:      098.7347 deg
RA of node:       005.9030 deg
Eccentricity:    0.0013896
Arg of perigee:   194.9605 deg
Mean anomaly:     165.1161 deg
Mean motion:   14.10939085 rev/day
Decay rate:       3.92e-06 rev/day^2
Epoch rev:             278
Checksum:              309

/EX
SB KEPS @ AMSAT  $ORB09057.M
Orbital Elements  09057.MISC

HR AMSAT ORBITAL ELEMENTS FOR MANNED AND MISCELLANEOUS SATELLITES
FROM WA5QGD FORT WORTH,TX February 26, 2009
Send Subscribe/unsubscribe to KEPS at 
http://www.amsat.org/mailman/listinfo/keps
BID: ORB09057.M
TO ALL RADIO AMATEURS BT

